,,,PA_Meas_PMT16A,,PR_Meas_QMR101_102,,RH_Meas_QMH101,,SR_Meas_QMS101,,TA_Meas_QMH101,,GenWind,,GenWind,
date,time,status,PA,status,PR,status,RH,status,SR,status,TA,status,DirAvg,status,SpdAvg,
2009-05-27, 00:00:04,VALID,1003.68,VALID,0,VALID,85.5198,VALID,0.100563,VALID,25.3955,VALID,310,VALID,0.405078,
2009-05-27, 00:01:04,VALID,1003.65,VALID,0,VALID,85.4511,VALID,0,VALID,25.3955,VALID,354,VALID,0.376563,
2009-05-27, 00:02:04,VALID,1003.63,VALID,0,VALID,85.2833,VALID,0.100563,VALID,25.3955,VALID,35,VALID,1.31914,
2009-05-27, 00:03:04,VALID,1003.62,VALID,0,VALID,85.1993,VALID,0.100563,VALID,25.4539,VALID,30,VALID,0.395703,
2009-05-27, 00:04:04,VALID,1003.58,VALID,0,VALID,85.123,VALID,0,VALID,25.4928,VALID,38,VALID,0.242578,
2009-05-27, 00:05:04,VALID,1003.57,VALID,0,VALID,85.207,VALID,0.100563,VALID,25.4928,VALID,39,VALID,0.315625,
2009-05-27, 00:06:04,VALID,1003.54,VALID,0,VALID,85.2833,VALID,0,VALID,25.4734,VALID,74,VALID,0.540625,
2009-05-27, 00:07:04,VALID,1003.53,VALID,0,VALID,85.4969,VALID,0.100563,VALID,25.4344,VALID,75,VALID,0.332422,
2009-05-27, 00:08:04,VALID,1003.48,VALID,0,VALID,85.6723,VALID,0.100563,VALID,25.3955,VALID,75,VALID,0,
2009-05-27, 00:09:04,VALID,1003.47,VALID,0,VALID,85.8173,VALID,0,VALID,25.376,VALID,73,VALID,0.347656,
2009-05-27, 00:10:04,VALID,1003.46,VALID,0,VALID,86.0614,VALID,0.100563,VALID,25.337,VALID,73,VALID,0.00703125,
2009-05-27, 00:11:04,VALID,1003.43,VALID,0,VALID,86.2064,VALID,0.100563,VALID,25.2981,VALID,73,VALID,0,
2009-05-27, 00:12:04,VALID,1003.42,VALID,0,VALID,86.4352,VALID,0,VALID,25.2806,VALID,73,VALID,0,
2009-05-27, 00:13:04,VALID,1003.41,VALID,0,VALID,86.6793,VALID,0,VALID,25.2416,VALID,73,VALID,0,
2009-05-27, 00:14:04,VALID,1003.4,VALID,0,VALID,86.9998,VALID,0,VALID,25.2221,VALID,73,VALID,0,
2009-05-27, 00:15:04,VALID,1003.37,VALID,0,VALID,87.3049,VALID,0,VALID,25.1813,VALID,73,VALID,0,
2009-05-27, 00:16:04,VALID,1003.37,VALID,0,VALID,87.5795,VALID,0,VALID,25.1442,VALID,73,VALID,0,
2009-05-27, 00:17:04,VALID,1003.33,VALID,0,VALID,87.8008,VALID,0,VALID,25.0839,VALID,73,VALID,0,
2009-05-27, 00:18:04,VALID,1003.35,VALID,0,VALID,88.0831,VALID,0,VALID,25.045,VALID,73,VALID,0,
2009-05-27, 00:19:04,VALID,1003.32,VALID,0,VALID,88.1746,VALID,0,VALID,25.0079,VALID,73,VALID,0,
2009-05-27, 00:20:04,VALID,1003.3,VALID,0,VALID,88.3272,VALID,0,VALID,24.9885,VALID,73,VALID,0.132422,
2009-05-27, 00:21:04,VALID,1003.29,VALID,0,VALID,88.5484,VALID,0,VALID,24.9495,VALID,73,VALID,0,
2009-05-27, 00:22:04,VALID,1003.27,VALID,0,VALID,88.701,VALID,0,VALID,24.9106,VALID,73,VALID,0,
2009-05-27, 00:23:04,VALID,1003.26,VALID,0,VALID,88.8231,VALID,0,VALID,24.8911,VALID,73,VALID,0,
2009-05-27, 00:24:04,VALID,1003.27,VALID,0,VALID,89.0748,VALID,0,VALID,24.8308,VALID,73,VALID,0,
2009-05-27, 00:25:04,VALID,1003.25,VALID,0,VALID,89.2732,VALID,0,VALID,24.7724,VALID,73,VALID,0,
2009-05-27, 00:26:04,VALID,1003.27,VALID,0,VALID,89.441,VALID,0,VALID,24.7548,VALID,73,VALID,0,
2009-05-27, 00:27:04,VALID,1003.24,VALID,0,VALID,89.6775,VALID,0.100563,VALID,24.7121,VALID,73,VALID,0,
2009-05-27, 00:28:04,VALID,1003.26,VALID,0,VALID,89.8911,VALID,0,VALID,24.6945,VALID,73,VALID,0.116016,
2009-05-27, 00:29:04,VALID,1003.26,VALID,0,VALID,90.0437,VALID,0.100563,VALID,24.675,VALID,73,VALID,0.110547,
2009-05-27, 00:30:04,VALID,1003.25,VALID,0,VALID,90.2344,VALID,0,VALID,24.6361,VALID,73,VALID,0.0863281,
2009-05-27, 00:31:04,VALID,1003.26,VALID,0,VALID,90.3488,VALID,0.100563,VALID,24.6166,VALID,73,VALID,0.208203,
2009-05-27, 00:32:04,VALID,1003.27,VALID,0,VALID,90.4938,VALID,0.100563,VALID,24.5758,VALID,73,VALID,0.0585938,
2009-05-27, 00:33:04,VALID,1003.27,VALID,0,VALID,90.715,VALID,0.100563,VALID,24.5777,VALID,73,VALID,0.00234375,
2009-05-27, 00:34:04,VALID,1003.29,VALID,0,VALID,90.8447,VALID,0,VALID,24.5972,VALID,73,VALID,0.264062,
2009-05-27, 00:35:04,VALID,1003.3,VALID,0,VALID,90.9057,VALID,0.100563,VALID,24.5582,VALID,73,VALID,0.21875,
2009-05-27, 00:36:04,VALID,1003.26,VALID,0,VALID,90.9897,VALID,0,VALID,24.5582,VALID,73,VALID,0,
2009-05-27, 00:37:04,VALID,1003.27,VALID,0,VALID,91.0812,VALID,0.100563,VALID,24.5601,VALID,73,VALID,0,
2009-05-27, 00:38:04,VALID,1003.22,VALID,0,VALID,91.127,VALID,0,VALID,24.5193,VALID,73,VALID,0,
2009-05-27, 00:39:04,VALID,1003.2,VALID,0,VALID,91.1651,VALID,0.100563,VALID,24.4998,VALID,73,VALID,0,
2009-05-27, 00:40:04,VALID,1003.21,VALID,0,VALID,91.1117,VALID,0,VALID,24.5017,VALID,73,VALID,0.00507812,
2009-05-27, 00:41:04,VALID,1003.2,VALID,0,VALID,91.1575,VALID,0.100563,VALID,24.4609,VALID,73,VALID,0.328125,
2009-05-27, 00:42:04,VALID,1003.2,VALID,0,VALID,91.127,VALID,0,VALID,24.4433,VALID,73,VALID,0.391406,
2009-05-27, 00:43:04,VALID,1003.19,VALID,0,VALID,91.1499,VALID,0,VALID,24.4238,VALID,73,VALID,0.280859,
2009-05-27, 00:44:04,VALID,1003.17,VALID,0,VALID,91.1804,VALID,0,VALID,24.3849,VALID,73,VALID,0.201562,
2009-05-27, 00:45:04,VALID,1003.2,VALID,0,VALID,91.249,VALID,0,VALID,24.3654,VALID,73,VALID,0.356641,
2009-05-27, 00:46:04,VALID,1003.17,VALID,0,VALID,91.3711,VALID,0,VALID,24.3654,VALID,73,VALID,0.315625,
2009-05-27, 00:47:04,VALID,1003.19,VALID,0,VALID,91.4779,VALID,0,VALID,24.3459,VALID,65,VALID,0.391406,
2009-05-27, 00:48:04,VALID,1003.18,VALID,0,VALID,91.4474,VALID,0,VALID,24.3459,VALID,45,VALID,0.43125,
2009-05-27, 00:49:04,VALID,1003.18,VALID,0,VALID,91.6,VALID,0,VALID,24.3459,VALID,16,VALID,0.417578,
2009-05-27, 00:50:04,VALID,1003.2,VALID,0,VALID,91.6381,VALID,0,VALID,24.3867,VALID,16,VALID,0.341797,
2009-05-27, 00:51:04,VALID,1003.23,VALID,0,VALID,91.6991,VALID,0,VALID,24.3654,VALID,16,VALID,0.0867188,
2009-05-27, 00:52:05,VALID,1003.23,VALID,0,VALID,91.7373,VALID,0,VALID,24.3459,VALID,16,VALID,0.223438,
2009-05-27, 00:53:05,VALID,1003.21,VALID,0,VALID,91.8059,VALID,0,VALID,24.3265,VALID,16,VALID,0.219531,
2009-05-27, 00:54:05,VALID,1003.22,VALID,0,VALID,91.8365,VALID,0,VALID,24.307,VALID,16,VALID,0.378906,
2009-05-27, 00:55:05,VALID,1003.22,VALID,0,VALID,91.9509,VALID,0,VALID,24.3265,VALID,16,VALID,0.297266,
2009-05-27, 00:56:05,VALID,1003.21,VALID,0,VALID,92.0653,VALID,0,VALID,24.3283,VALID,16,VALID,0.266797,
2009-05-27, 00:57:05,VALID,1003.22,VALID,0,VALID,92.1264,VALID,0,VALID,24.3052,VALID,16,VALID,0.186328,
2009-05-27, 00:58:05,VALID,1003.2,VALID,0,VALID,92.195,VALID,0,VALID,24.3265,VALID,16,VALID,0.226172,
2009-05-27, 00:59:05,VALID,1003.19,VALID,0,VALID,92.2179,VALID,0,VALID,24.3265,VALID,16,VALID,0.177734,
2009-05-27, 01:00:05,VALID,1003.18,VALID,0,VALID,92.2408,VALID,0,VALID,24.3052,VALID,16,VALID,0,
2009-05-27, 01:01:05,VALID,1003.19,VALID,0,VALID,92.2713,VALID,0,VALID,24.3673,VALID,16,VALID,0.0183594,
2009-05-27, 01:02:05,VALID,1003.16,VALID,0,VALID,92.2942,VALID,0,VALID,24.3265,VALID,16,VALID,0.329297,
2009-05-27, 01:03:05,VALID,1003.16,VALID,0,VALID,92.2561,VALID,0,VALID,24.3052,VALID,16,VALID,0.419531,
2009-05-27, 01:04:05,VALID,1003.15,VALID,0,VALID,92.3552,VALID,0,VALID,24.3459,VALID,16,VALID,0.517187,
2009-05-27, 01:05:05,VALID,1003.13,VALID,0,VALID,92.2789,VALID,0,VALID,24.3654,VALID,16,VALID,0.498047,
2009-05-27, 01:06:05,VALID,1003.13,VALID,0,VALID,92.2027,VALID,0,VALID,24.3654,VALID,14,VALID,0.555859,
2009-05-27, 01:07:05,VALID,1003.13,VALID,0,VALID,92.1569,VALID,0,VALID,24.3849,VALID,14,VALID,0.514063,
2009-05-27, 01:08:05,VALID,1003.13,VALID,0,VALID,92.1798,VALID,0,VALID,24.3849,VALID,14,VALID,0.444141,
2009-05-27, 01:09:05,VALID,1003.14,VALID,0,VALID,92.1416,VALID,0,VALID,24.3849,VALID,14,VALID,0.25,
2009-05-27, 01:10:05,VALID,1003.11,VALID,0,VALID,92.2027,VALID,0,VALID,24.3654,VALID,14,VALID,0.198047,
2009-05-27, 01:11:05,VALID,1003.12,VALID,0,VALID,92.195,VALID,0,VALID,24.3654,VALID,14,VALID,0.154687,
2009-05-27, 01:12:05,VALID,1003.08,VALID,0,VALID,92.2561,VALID,0,VALID,24.3673,VALID,14,VALID,0.138672,
2009-05-27, 01:13:05,VALID,1003.05,VALID,0,VALID,92.2408,VALID,0,VALID,24.3459,VALID,14,VALID,0.0679687,
2009-05-27, 01:14:05,VALID,1003.03,VALID,0,VALID,92.2484,VALID,0,VALID,24.3265,VALID,14,VALID,0,
2009-05-27, 01:15:05,VALID,1003.02,VALID,0,VALID,92.2637,VALID,0,VALID,24.3265,VALID,14,VALID,0.06875,
2009-05-27, 01:16:05,VALID,1003.03,VALID,0,VALID,92.2561,VALID,0,VALID,24.3459,VALID,14,VALID,0.316406,
2009-05-27, 01:17:05,VALID,1003.05,VALID,0,VALID,92.2408,VALID,0,VALID,24.3052,VALID,14,VALID,0.164063,
2009-05-27, 01:18:05,VALID,1003.06,VALID,0,VALID,92.2637,VALID,0,VALID,24.3052,VALID,14,VALID,0.257422,
2009-05-27, 01:19:05,VALID,1003.08,VALID,0,VALID,92.2561,VALID,0,VALID,24.3459,VALID,60,VALID,0.308594,
2009-05-27, 01:20:05,VALID,1003.14,VALID,0,VALID,92.1721,VALID,0,VALID,24.3441,VALID,60,VALID,0.174219,
2009-05-27, 01:21:05,VALID,1003.12,VALID,0,VALID,92.0958,VALID,0,VALID,24.3849,VALID,60,VALID,0.25,
2009-05-27, 01:22:05,VALID,1003.12,VALID,0,VALID,92.0272,VALID,0,VALID,24.3636,VALID,57,VALID,0.485156,
2009-05-27, 01:23:05,VALID,1003.11,VALID,0,VALID,91.9738,VALID,0,VALID,24.3654,VALID,55,VALID,0.373047,
2009-05-27, 01:24:05,VALID,1003.13,VALID,0,VALID,91.928,VALID,0,VALID,24.3849,VALID,55,VALID,0.385938,
2009-05-27, 01:25:05,VALID,1003.11,VALID,0,VALID,91.867,VALID,0,VALID,24.3441,VALID,55,VALID,0.392578,
2009-05-27, 01:26:05,VALID,1003.12,VALID,0,VALID,91.8212,VALID,0,VALID,24.3441,VALID,53,VALID,0.448828,
2009-05-27, 01:27:05,VALID,1003.11,VALID,0,VALID,91.7831,VALID,0,VALID,24.3654,VALID,53,VALID,0.227734,
2009-05-27, 01:28:05,VALID,1003.13,VALID,0,VALID,91.7678,VALID,0,VALID,24.3654,VALID,53,VALID,0.364453,
2009-05-27, 01:29:05,VALID,1003.13,VALID,0,VALID,91.7983,VALID,0,VALID,24.3654,VALID,53,VALID,0.284766,
2009-05-27, 01:30:05,VALID,1003.12,VALID,0,VALID,91.8365,VALID,0,VALID,24.3441,VALID,53,VALID,0.35625,
2009-05-27, 01:31:05,VALID,1003.15,VALID,0,VALID,91.867,VALID,0,VALID,24.3441,VALID,53,VALID,0.275781,
2009-05-27, 01:32:05,VALID,1003.17,VALID,0,VALID,91.8441,VALID,0,VALID,24.3441,VALID,53,VALID,0.255859,
2009-05-27, 01:33:05,VALID,1003.16,VALID,0,VALID,91.8365,VALID,0,VALID,24.3052,VALID,53,VALID,0.274219,
2009-05-27, 01:34:05,VALID,1003.17,VALID,0,VALID,91.8059,VALID,0,VALID,24.3246,VALID,53,VALID,0.312891,
2009-05-27, 01:35:05,VALID,1003.18,VALID,0,VALID,91.7754,VALID,0,VALID,24.3459,VALID,53,VALID,0.322266,
2009-05-27, 01:36:05,VALID,1003.18,VALID,0,VALID,91.7373,VALID,0,VALID,24.3052,VALID,53,VALID,0.345313,
2009-05-27, 01:37:05,VALID,1003.21,VALID,0,VALID,91.7449,VALID,0,VALID,24.3246,VALID,53,VALID,0.428516,
2009-05-27, 01:38:05,VALID,1003.23,VALID,0,VALID,91.6763,VALID,0,VALID,24.3441,VALID,53,VALID,0.355078,
2009-05-27, 01:39:05,VALID,1003.26,VALID,0,VALID,91.6152,VALID,0,VALID,24.3654,VALID,53,VALID,0.457031,
2009-05-27, 01:40:05,VALID,1003.27,VALID,0,VALID,91.6,VALID,0,VALID,24.3654,VALID,53,VALID,0.439844,
2009-05-27, 01:41:05,VALID,1003.31,VALID,0,VALID,91.5466,VALID,0,VALID,24.3849,VALID,53,VALID,0.258203,
2009-05-27, 01:42:05,VALID,1003.3,VALID,0,VALID,91.5161,VALID,0,VALID,24.3849,VALID,53,VALID,0.129688,
2009-05-27, 01:43:05,VALID,1003.31,VALID,0,VALID,91.5389,VALID,0,VALID,24.3441,VALID,53,VALID,0.228516,
2009-05-27, 01:44:05,VALID,1003.28,VALID,0,VALID,91.5923,VALID,0,VALID,24.3246,VALID,53,VALID,0.0457031,
2009-05-27, 01:45:05,VALID,1003.29,VALID,0,VALID,91.6915,VALID,0,VALID,24.3052,VALID,53,VALID,0.248437,
2009-05-27, 01:46:05,VALID,1003.28,VALID,0,VALID,91.8136,VALID,0,VALID,24.307,VALID,53,VALID,0,
2009-05-27, 01:47:05,VALID,1003.22,VALID,0,VALID,91.8975,VALID,0,VALID,24.2875,VALID,53,VALID,0.382422,
2009-05-27, 01:48:05,VALID,1003.2,VALID,0,VALID,92.0501,VALID,0,VALID,24.2681,VALID,53,VALID,0.284766,
2009-05-27, 01:49:05,VALID,1003.22,VALID,0,VALID,92.0882,VALID,0,VALID,24.2468,VALID,53,VALID,0.406641,
2009-05-27, 01:50:05,VALID,1003.19,VALID,0,VALID,92.1492,VALID,0,VALID,24.2681,VALID,53,VALID,0.210938,
2009-05-27, 01:51:05,VALID,1003.17,VALID,0,VALID,92.2484,VALID,0,VALID,24.2468,VALID,53,VALID,0.00585938,
2009-05-27, 01:52:05,VALID,1003.17,VALID,0,VALID,92.3171,VALID,0,VALID,24.2273,VALID,53,VALID,0.227344,
2009-05-27, 01:53:05,VALID,1003.14,VALID,0,VALID,92.401,VALID,0,VALID,24.2078,VALID,53,VALID,0.234766,
2009-05-27, 01:54:05,VALID,1003.13,VALID,0,VALID,92.4697,VALID,0,VALID,24.1884,VALID,53,VALID,0.385938,
2009-05-27, 01:55:05,VALID,1003.1,VALID,0,VALID,92.5154,VALID,0,VALID,24.1689,VALID,53,VALID,0.359375,
2009-05-27, 01:56:05,VALID,1003.07,VALID,0,VALID,92.5765,VALID,0,VALID,24.1689,VALID,53,VALID,0.371094,
2009-05-27, 01:57:05,VALID,1003.04,VALID,0,VALID,92.6451,VALID,0,VALID,24.1707,VALID,53,VALID,0.304297,
2009-05-27, 01:58:05,VALID,1003.05,VALID,0,VALID,92.6909,VALID,0,VALID,24.1494,VALID,52,VALID,0.342578,
2009-05-27, 01:59:05,VALID,1003.03,VALID,0,VALID,92.7214,VALID,0,VALID,24.1513,VALID,45,VALID,0.427344,
2009-05-27, 02:00:05,VALID,1002.99,VALID,0,VALID,92.813,VALID,0,VALID,24.1105,VALID,24,VALID,0.341016,
2009-05-27, 02:01:05,VALID,1003,VALID,0,VALID,92.8358,VALID,0,VALID,24.1318,VALID,8,VALID,0.402344,
2009-05-27, 02:02:05,VALID,1002.98,VALID,0,VALID,92.813,VALID,0,VALID,24.1123,VALID,8,VALID,0.471094,
2009-05-27, 02:03:05,VALID,1002.98,VALID,0,VALID,92.8816,VALID,0,VALID,24.0929,VALID,7,VALID,0.56875,
2009-05-27, 02:04:05,VALID,1002.98,VALID,0,VALID,92.8892,VALID,0,VALID,24.0929,VALID,359,VALID,0.396484,
2009-05-27, 02:05:05,VALID,1002.97,VALID,0,VALID,92.8816,VALID,0,VALID,24.0929,VALID,359,VALID,0.632031,
2009-05-27, 02:06:05,VALID,1002.96,VALID,0,VALID,92.9503,VALID,0,VALID,24.0521,VALID,359,VALID,0.579297,
2009-05-27, 02:07:05,VALID,1002.96,VALID,0,VALID,92.9884,VALID,0,VALID,24.0521,VALID,358,VALID,0.550781,
2009-05-27, 02:08:05,VALID,1002.95,VALID,0,VALID,93.0495,VALID,0,VALID,24.0539,VALID,358,VALID,0.446875,
2009-05-27, 02:09:05,VALID,1002.92,VALID,0,VALID,93.0571,VALID,0,VALID,24.0539,VALID,358,VALID,0.428516,
2009-05-27, 02:10:05,VALID,1002.91,VALID,0,VALID,93.1181,VALID,0,VALID,24.0326,VALID,358,VALID,0.379687,
2009-05-27, 02:11:05,VALID,1002.91,VALID,0,VALID,93.1868,VALID,0,VALID,24.0132,VALID,358,VALID,0.396094,
2009-05-27, 02:12:05,VALID,1002.88,VALID,0,VALID,93.1944,VALID,0,VALID,24.0345,VALID,358,VALID,0.160938,
2009-05-27, 02:13:05,VALID,1002.86,VALID,0,VALID,93.2478,VALID,0,VALID,24.0539,VALID,358,VALID,0.224219,
2009-05-27, 02:14:05,VALID,1002.87,VALID,0,VALID,93.2402,VALID,0,VALID,24.0539,VALID,358,VALID,0.0191406,
2009-05-27, 02:15:05,VALID,1002.84,VALID,0,VALID,93.3012,VALID,0,VALID,24.015,VALID,358,VALID,0.119531,
2009-05-27, 02:16:05,VALID,1002.84,VALID,0,VALID,93.3241,VALID,0,VALID,24.0132,VALID,358,VALID,0.229297,
2009-05-27, 02:17:05,VALID,1002.78,VALID,0,VALID,93.347,VALID,0,VALID,24.0345,VALID,31,VALID,0.403125,
2009-05-27, 02:18:05,VALID,1002.76,VALID,0,VALID,93.3622,VALID,0,VALID,24.0132,VALID,32,VALID,0.203125,
2009-05-27, 02:19:05,VALID,1002.73,VALID,0,VALID,93.3241,VALID,0,VALID,24.0345,VALID,32,VALID,0.0125,
2009-05-27, 02:20:05,VALID,1002.69,VALID,0,VALID,93.3622,VALID,0,VALID,23.9937,VALID,35,VALID,0.196875,
2009-05-27, 02:21:05,VALID,1002.64,VALID,0,VALID,93.2554,VALID,0,VALID,23.9955,VALID,35,VALID,0.248047,
2009-05-27, 02:22:05,VALID,1002.62,VALID,0,VALID,93.2325,VALID,0.100563,VALID,23.9761,VALID,35,VALID,0.234766,
2009-05-27, 02:23:05,VALID,1002.59,VALID,0,VALID,93.2554,VALID,0,VALID,23.9566,VALID,35,VALID,0.161719,
2009-05-27, 02:24:05,VALID,1002.55,VALID,0,VALID,93.2783,VALID,0,VALID,23.9353,VALID,35,VALID,0,
2009-05-27, 02:25:05,VALID,1002.52,VALID,0,VALID,93.3241,VALID,0,VALID,23.9566,VALID,35,VALID,0,
2009-05-27, 02:26:05,VALID,1002.47,VALID,0,VALID,93.3394,VALID,0,VALID,23.9548,VALID,35,VALID,0,
2009-05-27, 02:27:05,VALID,1002.49,VALID,0,VALID,93.347,VALID,0,VALID,23.9761,VALID,35,VALID,0.000390625,
2009-05-27, 02:28:05,VALID,1002.46,VALID,0,VALID,93.4233,VALID,0,VALID,24.015,VALID,35,VALID,0.305859,
2009-05-27, 02:29:05,VALID,1002.45,VALID,0,VALID,93.4385,VALID,0,VALID,24.0539,VALID,43,VALID,0.306641,
2009-05-27, 02:30:05,VALID,1002.44,VALID,0,VALID,93.4309,VALID,0,VALID,24.1142,VALID,82,VALID,0.526953,
2009-05-27, 02:31:05,VALID,1002.43,VALID,0,VALID,93.3928,VALID,0,VALID,24.1318,VALID,79,VALID,0.357812,
2009-05-27, 02:32:05,VALID,1002.44,VALID,0,VALID,93.3241,VALID,0,VALID,24.1513,VALID,79,VALID,0.571094,
2009-05-27, 02:33:05,VALID,1002.47,VALID,0,VALID,93.2936,VALID,0,VALID,24.1707,VALID,78,VALID,0.58125,
2009-05-27, 02:34:05,VALID,1002.47,VALID,0,VALID,93.2173,VALID,0,VALID,24.2078,VALID,78,VALID,0.604297,
2009-05-27, 02:35:05,VALID,1002.5,VALID,0,VALID,93.141,VALID,0,VALID,24.2486,VALID,68,VALID,0.324609,
2009-05-27, 02:36:05,VALID,1002.51,VALID,0,VALID,93.0876,VALID,0,VALID,24.2875,VALID,73,VALID,0.532812,
2009-05-27, 02:37:05,VALID,1002.51,VALID,0,VALID,92.9961,VALID,0,VALID,24.3246,VALID,73,VALID,0.484375,
2009-05-27, 02:38:05,VALID,1002.5,VALID,0,VALID,92.8587,VALID,0,VALID,24.3441,VALID,73,VALID,0.317187,
2009-05-27, 02:39:05,VALID,1002.5,VALID,0,VALID,92.7062,VALID,0,VALID,24.3849,VALID,74,VALID,0.189844,
2009-05-27, 02:40:05,VALID,1002.5,VALID,0,VALID,92.5612,VALID,0,VALID,24.4238,VALID,74,VALID,0.348047,
2009-05-27, 02:41:05,VALID,1002.5,VALID,0,VALID,92.4315,VALID,0,VALID,24.4433,VALID,72,VALID,0.158594,
2009-05-27, 02:42:05,VALID,1002.44,VALID,0,VALID,92.2637,VALID,0,VALID,24.422,VALID,72,VALID,0.00351562,
2009-05-27, 02:43:05,VALID,1002.44,VALID,0,VALID,92.1416,VALID,0,VALID,24.4822,VALID,72,VALID,0.139844,
2009-05-27, 02:44:05,VALID,1002.42,VALID,0,VALID,91.9967,VALID,0,VALID,24.5212,VALID,72,VALID,0.0484375,
2009-05-27, 02:45:05,VALID,1002.38,VALID,0,VALID,91.8746,VALID,0,VALID,24.4998,VALID,72,VALID,0.0351563,
2009-05-27, 02:46:05,VALID,1002.35,VALID,0,VALID,91.7602,VALID,0,VALID,24.5212,VALID,72,VALID,0,
2009-05-27, 02:47:05,VALID,1002.33,VALID,0,VALID,91.6457,VALID,0,VALID,24.5406,VALID,72,VALID,0.00507812,
2009-05-27, 02:48:05,VALID,1002.32,VALID,0,VALID,91.5542,VALID,0,VALID,24.5601,VALID,72,VALID,0.225,
2009-05-27, 02:49:05,VALID,1002.29,VALID,0,VALID,91.4703,VALID,0,VALID,24.599,VALID,72,VALID,0,
2009-05-27, 02:50:05,VALID,1002.3,VALID,0,VALID,91.3711,VALID,0,VALID,24.5564,VALID,72,VALID,0,
2009-05-27, 02:51:05,VALID,1002.27,VALID,0,VALID,91.2796,VALID,0,VALID,24.5796,VALID,72,VALID,0,
2009-05-27, 02:52:05,VALID,1002.28,VALID,0,VALID,91.2414,VALID,0,VALID,24.5193,VALID,72,VALID,0,
2009-05-27, 02:53:05,VALID,1002.31,VALID,0,VALID,91.2872,VALID,0,VALID,24.5193,VALID,74,VALID,0.0789063,
2009-05-27, 02:54:05,VALID,1002.3,VALID,0,VALID,91.3864,VALID,0,VALID,24.5212,VALID,73,VALID,0.564062,
2009-05-27, 02:55:05,VALID,1002.26,VALID,0,VALID,91.4092,VALID,0,VALID,24.5212,VALID,72,VALID,0.296094,
2009-05-27, 02:56:05,VALID,1002.31,VALID,0,VALID,91.3864,VALID,0,VALID,24.4804,VALID,72,VALID,0.210156,
2009-05-27, 02:57:05,VALID,1002.29,VALID,0,VALID,91.4016,VALID,0,VALID,24.5193,VALID,67,VALID,0.553516,
2009-05-27, 02:58:05,VALID,1002.32,VALID,0,VALID,91.3177,VALID,0,VALID,24.5601,VALID,58,VALID,0.328906,
2009-05-27, 02:59:05,VALID,1002.28,VALID,0,VALID,91.2567,VALID,0,VALID,24.5796,VALID,29,VALID,0.261328,
2009-05-27, 03:00:05,VALID,1002.29,VALID,0,VALID,91.1041,VALID,0,VALID,24.599,VALID,38,VALID,0.0433594,
2009-05-27, 03:01:05,VALID,1002.29,VALID,0,VALID,91.0736,VALID,0,VALID,24.6185,VALID,32,VALID,0.518359,
2009-05-27, 03:02:05,VALID,1002.27,VALID,0,VALID,90.8523,VALID,0,VALID,24.638,VALID,32,VALID,0.317578,
2009-05-27, 03:03:05,VALID,1002.29,VALID,0,VALID,90.7684,VALID,0,VALID,24.6574,VALID,32,VALID,0.533203,
2009-05-27, 03:04:05,VALID,1002.26,VALID,0,VALID,90.6464,VALID,0,VALID,24.6769,VALID,11,VALID,0.403906,
2009-05-27, 03:05:05,VALID,1002.25,VALID,0,VALID,90.5396,VALID,0,VALID,24.6964,VALID,11,VALID,0.486328,
2009-05-27, 03:06:05,VALID,1002.22,VALID,0,VALID,90.3717,VALID,0,VALID,24.7353,VALID,14,VALID,0.542578,
2009-05-27, 03:07:05,VALID,1002.22,VALID,0,VALID,90.2725,VALID,0,VALID,24.7548,VALID,1,VALID,0.472656,
2009-05-27, 03:08:05,VALID,1002.2,VALID,0,VALID,90.1047,VALID,0,VALID,24.7937,VALID,1,VALID,0.389453,
2009-05-27, 03:09:05,VALID,1002.19,VALID,0,VALID,90.0437,VALID,0,VALID,24.7937,VALID,1,VALID,0.471094,
2009-05-27, 03:10:05,VALID,1002.17,VALID,0,VALID,90.1429,VALID,0,VALID,24.7335,VALID,1,VALID,0.363672,
2009-05-27, 03:11:05,VALID,1002.18,VALID,0,VALID,90.3107,VALID,0,VALID,24.714,VALID,1,VALID,0.297266,
2009-05-27, 03:12:05,VALID,1002.14,VALID,0,VALID,90.4022,VALID,0,VALID,24.6945,VALID,1,VALID,0.285156,
2009-05-27, 03:13:05,VALID,1002.13,VALID,0,VALID,90.4251,VALID,0,VALID,24.6964,VALID,1,VALID,0.294141,
2009-05-27, 03:14:05,VALID,1002.12,VALID,0,VALID,90.5243,VALID,0,VALID,24.6361,VALID,1,VALID,0.217969,
2009-05-27, 03:15:05,VALID,1002.11,VALID,0,VALID,90.654,VALID,0,VALID,24.6166,VALID,1,VALID,0.183203,
2009-05-27, 03:16:05,VALID,1002.11,VALID,0,VALID,90.7684,VALID,0,VALID,24.5972,VALID,1,VALID,0.107031,
2009-05-27, 03:17:05,VALID,1002.1,VALID,0,VALID,90.8676,VALID,0,VALID,24.5601,VALID,2,VALID,0.05625,
2009-05-27, 03:18:05,VALID,1002.11,VALID,0,VALID,90.9668,VALID,0,VALID,24.5406,VALID,2,VALID,0.403516,
2009-05-27, 03:19:05,VALID,1002.11,VALID,0,VALID,91.0354,VALID,0,VALID,24.4804,VALID,37,VALID,0.336719,
2009-05-27, 03:20:05,VALID,1002.09,VALID,0,VALID,91.1422,VALID,0,VALID,24.5017,VALID,37,VALID,0.332422,
2009-05-27, 03:21:05,VALID,1002.06,VALID,0,VALID,91.2109,VALID,0,VALID,24.4609,VALID,37,VALID,0.117969,
2009-05-27, 03:22:05,VALID,1002.04,VALID,0,VALID,91.3024,VALID,0,VALID,24.4628,VALID,37,VALID,0.183984,
2009-05-27, 03:23:05,VALID,1002.05,VALID,0,VALID,91.4016,VALID,0,VALID,24.422,VALID,37,VALID,0.228516,
2009-05-27, 03:24:05,VALID,1002.05,VALID,0,VALID,91.455,VALID,0,VALID,24.4025,VALID,37,VALID,0.373047,
2009-05-27, 03:25:05,VALID,1002.03,VALID,0,VALID,91.5313,VALID,0,VALID,24.4025,VALID,37,VALID,0.411719,
2009-05-27, 03:26:05,VALID,1001.98,VALID,0,VALID,91.6,VALID,0,VALID,24.3849,VALID,33,VALID,0.525,
2009-05-27, 03:27:05,VALID,1001.96,VALID,0,VALID,91.7449,VALID,0,VALID,24.3441,VALID,7,VALID,0.527344,
2009-05-27, 03:28:05,VALID,1001.95,VALID,0,VALID,91.9585,VALID,0,VALID,24.3654,VALID,345,VALID,0.661719,
2009-05-27, 03:29:05,VALID,1001.95,VALID,0,VALID,92.0501,VALID,0,VALID,24.3033,VALID,345,VALID,0.530078,
2009-05-27, 03:30:05,VALID,1001.96,VALID,0,VALID,92.0577,VALID,0,VALID,24.3052,VALID,345,VALID,0.545703,
2009-05-27, 03:31:05,VALID,1001.97,VALID,0,VALID,92.134,VALID,0,VALID,24.2857,VALID,336,VALID,0.399219,
2009-05-27, 03:32:05,VALID,1002.01,VALID,0,VALID,92.2255,VALID,0,VALID,24.2468,VALID,336,VALID,0.167969,
2009-05-27, 03:33:04,VALID,1002.01,VALID,0,VALID,92.2713,VALID,0,VALID,24.2273,VALID,336,VALID,0.338281,
2009-05-27, 03:34:04,VALID,1002.04,VALID,0,VALID,92.3934,VALID,0,VALID,24.2291,VALID,336,VALID,0,
2009-05-27, 03:35:04,VALID,1002.07,VALID,0,VALID,92.462,VALID,0,VALID,24.2291,VALID,336,VALID,0.257031,
2009-05-27, 03:36:04,VALID,1002.09,VALID,0,VALID,92.5154,VALID,0,VALID,24.2078,VALID,336,VALID,0.0421875,
2009-05-27, 03:37:04,VALID,1002.12,VALID,0,VALID,92.6375,VALID,0,VALID,24.1884,VALID,336,VALID,0.0148437,
2009-05-27, 03:38:04,VALID,1002.17,VALID,0,VALID,92.7062,VALID,0,VALID,24.1902,VALID,336,VALID,0,
2009-05-27, 03:39:04,VALID,1002.16,VALID,0,VALID,92.7748,VALID,0,VALID,24.1494,VALID,336,VALID,0.00585938,
2009-05-27, 03:40:04,VALID,1002.15,VALID,0,VALID,92.9045,VALID,0,VALID,24.1494,VALID,336,VALID,0,
2009-05-27, 03:41:04,VALID,1002.15,VALID,0,VALID,92.9655,VALID,0,VALID,24.13,VALID,336,VALID,0.241406,
2009-05-27, 03:42:04,VALID,1002.11,VALID,0,VALID,93.0189,VALID,0,VALID,24.1494,VALID,336,VALID,0.236328,
2009-05-27, 03:43:04,VALID,1002.11,VALID,0,VALID,93.0571,VALID,0,VALID,24.1513,VALID,336,VALID,0.275,
2009-05-27, 03:44:04,VALID,1002.09,VALID,0,VALID,93.0571,VALID,0,VALID,24.1318,VALID,336,VALID,0.14375,
2009-05-27, 03:45:04,VALID,1002.09,VALID,0,VALID,93.08,VALID,0,VALID,24.091,VALID,336,VALID,0.233984,
2009-05-27, 03:46:04,VALID,1002.07,VALID,0,VALID,93.1639,VALID,0,VALID,24.091,VALID,342,VALID,0.362109,
2009-05-27, 03:47:04,VALID,1002.05,VALID,0,VALID,93.2402,VALID,0,VALID,24.1318,VALID,342,VALID,0.238281,